Weather History for TJNR - November, 2012

Change the Weather History Date:

Wednesday, November 14, 2012

  Actual Average Record
Temperature  
Mean Temperature 80 °F -  
Max Temperature 84 °F 83 °F 88 °F (2013)
Min Temperature 77 °F 71 °F 71 °F (2002)
Cooling Degree Days 16    
Growing Degree Days 30 (Base 50)    
Moisture  
Dew Point 75 °F    
Average Humidity 81    
Maximum Humidity 94    
Minimum Humidity 74    
Precipitation  
Precipitation 0.01 in - - ()
Sea Level Pressure  
Sea Level Pressure 29.93 in    
Wind  
Wind Speed 4 mph (East)    
Max Wind Speed 10 mph    
Max Gust Speed 77 mph    
Visibility 10 miles    
Events Rain    
Averages and records for this station are not official NWS values.
T = Trace of Precipitation, MM = Missing Value Source: NWS Daily Summary

Daily Weather History Graph

Daily Weather History Graph

Search for Another Location

Airport or City:

Trip Planner

Search our weather history database for the weather conditions in past years. The results will help you decide how hot, cold, wet, or windy it might be!

Date:

Astronomy

Nov. 14, 2012 Rise Set
Actual Time 6:28 AM AST 5:45 PM AST
Civil Twilight 6:05 AM AST 6:08 PM AST
Nautical Twilight 5:39 AM AST 6:34 PM AST
Astronomical Twilight 5:13 AM AST 7:00 PM AST
Moon 7:06 AM AST (11/14) 6:38 PM AST (11/14)
Length of Visible Light 12h 02m
Length of Day
11h 16m
New Moon, 1% of the Moon is Illuminated
Nov 14
New Moon
Nov 20
First Quarter
Nov 28
Full
Dec 6
Last Quarter
Dec 13
New

Hourly Weather History & Observations

Time (AST) Temp. Heat Index Dew Point Humidity Pressure Visibility Wind Dir Wind Speed Gust Speed Precip Events Conditions
12:53 AM 81.0 °F 86.2 °F 73.9 °F 79% 29.93 in 10.0 mi East 3.5 mph - N/A   Partly Cloudy
1:53 AM 81.0 °F 86.2 °F 73.9 °F 79% 29.91 in 10.0 mi East 3.5 mph - N/A   Partly Cloudy
2:53 AM 78.1 °F - 73.9 °F 87% 29.89 in 10.0 mi Calm Calm - N/A   Partly Cloudy
3:53 AM 77.0 °F - 75.0 °F 94% 29.88 in 10.0 mi North 3.5 mph - N/A   Mostly Cloudy
4:11 AM 78.8 °F - 75.2 °F 89% 29.88 in 10.0 mi Calm Calm - N/A   Mostly Cloudy
4:53 AM 80.1 °F 85.1 °F 75.0 °F 85% 29.88 in 10.0 mi East 5.8 mph - N/A   Partly Cloudy
5:53 AM 79.0 °F - 73.9 °F 84% 29.89 in 10.0 mi East 3.5 mph - N/A   Clear
6:53 AM 80.1 °F 84.5 °F 73.9 °F 81% 29.93 in 10.0 mi Calm Calm - N/A   Overcast
7:53 AM 81.0 °F 87.3 °F 75.9 °F 85% 29.95 in 10.0 mi Calm Calm - N/A   Scattered Clouds
8:53 AM 82.0 °F 88.6 °F 75.0 °F 79% 29.96 in 10.0 mi ENE 10.4 mph - N/A   Clear
9:53 AM 82.0 °F 89.4 °F 75.9 °F 82% 29.98 in 8.0 mi North - - 0.00 in Rain Light Rain
10:07 AM 80.6 °F 86.2 °F 75.2 °F 84% 29.98 in 8.0 mi East 5.8 mph 77.1 mph 0.00 in Rain Light Rain
10:44 AM 82.4 °F 90.9 °F 77.0 °F 84% 29.97 in 8.0 mi ESE 5.8 mph - 0.00 in   Overcast
10:53 AM 82.0 °F 90.2 °F 77.0 °F 85% 29.97 in 6.0 mi East 5.8 mph - 0.00 in Rain Light Rain
11:15 AM 84.2 °F 92.3 °F 75.2 °F 74% 29.97 in 10.0 mi Variable 4.6 mph - 0.01 in   Mostly Cloudy
11:53 AM 84.0 °F 92.6 °F 75.9 °F 76% 29.96 in 10.0 mi ENE 4.6 mph - 0.01 in   Partly Cloudy
12:53 PM 82.9 °F 90.2 °F 75.0 °F 77% 29.94 in 10.0 mi NE 5.8 mph - N/A   Scattered Clouds
1:53 PM 84.0 °F 91.9 °F 75.0 °F 74% 29.90 in 10.0 mi ESE 10.4 mph - N/A   Scattered Clouds
2:53 PM 84.0 °F 91.9 °F 75.0 °F 74% 29.89 in 10.0 mi ESE 10.4 mph - N/A   Clear
3:53 PM 84.0 °F 91.9 °F 75.0 °F 74% 29.88 in 10.0 mi ESE 5.8 mph - N/A   Clear
4:53 PM 84.0 °F 91.9 °F 75.0 °F 74% 29.88 in 10.0 mi ESE 6.9 mph - N/A   Clear
5:53 PM 82.0 °F 88.6 °F 75.0 °F 79% 29.90 in 10.0 mi East 5.8 mph - N/A   Partly Cloudy
6:53 PM 81.0 °F 86.2 °F 73.9 °F 79% 29.91 in 10.0 mi East 4.6 mph - N/A   Clear
7:53 PM 80.1 °F 85.1 °F 75.0 °F 85% 29.93 in 10.0 mi East 6.9 mph - 0.00 in   Scattered Clouds
8:53 PM 81.0 °F 85.8 °F 73.0 °F 77% 29.94 in 10.0 mi East 9.2 mph - N/A   Clear
9:53 PM 81.0 °F 86.2 °F 73.9 °F 79% 29.94 in 10.0 mi East 5.8 mph - N/A   Clear
10:53 PM 81.0 °F 86.2 °F 73.9 °F 79% 29.94 in 10.0 mi East 4.6 mph - N/A   Mostly Cloudy
11:53 PM 81.0 °F 86.2 °F 73.9 °F 79% 29.94 in 10.0 mi ENE 3.5 mph - N/A   Partly Cloudy